This demonstration page uses our WeatherBlox Daily Observations layout. Learn more.

Left ArrowRight Arrow

34.16533, -84.80231

Hourly Observations for March 5, 2021

Temp ( °F °C ) Dew Point ( °F °C ) Humidity (%) Winds ( mph kmh ) Pressure ( in mb ) Visibility ( mi km ) Precip ( " mm )
12:53 am 00:53 Clear 42 5.6 34 1.1 73 73 Calm 30.06 1018 10 16 0.00 0.00
1:53 am 01:53 Clear 45 7.2 32 0 61 61 Calm 30.07 1018 10 16 0.00 0.00
2:53 am 02:53 Clear 45 7.2 30 -1.1 56 56 Calm 30.06 1018 10 16 0.00 0.00
3:53 am 03:53 Clear 43 6.1 30 -1.1 60 60 Calm 30.06 1018 10 16 0.00 0.00
4:53 am 04:53 Clear 38 3.3 32 0 79 79 Calm 30.08 1019 10 16 0.00 0.00
5:53 am 05:53 Clear 37 2.8 30 -1.1 76 76 Calm 30.09 1019 10 16 0.00 0.00
6:53 am 06:53 Clear 39 3.9 29 -1.7 67 67 Calm 30.10 1019 10 16 0.00 0.00
7:53 am 07:53 Sunny 43 6.1 31 -0.6 63 63 Calm 30.12 1020 10 16 0.00 0.00
8:53 am 08:53 Sunny 49 9.4 29 -1.7 46 46 N 6 9 30.14 1021 10 16 0.00 0.00
9:53 am 09:53 Sunny 53 11.7 27 -2.8 37 37 N 9 15 30.14 1021 10 16 0.00 0.00
10:53 am 10:53 Sunny 56 13.3 27 -2.8 33 33 NNE 8 13 30.13 1020 10 16 0.00 0.00
11:53 am 11:53 Sunny 58 14.4 24 -4.4 27 27 N 6 9 30.10 1019 10 16 0.00 0.00
12:53 pm 12:53 Sunny 60 15.6 21 -6.1 22 22 VRB 6 9 30.09 1019 10 16 0.00 0.00
1:53 pm 13:53 Sunny 62 16.7 23 -5 22 22 VRB 6 9 30.06 1018 10 16 0.00 0.00
2:53 pm 14:53 Sunny 62 16.7 20 -6.7 20 20 N 13 20 30.03 1017 10 16 0.00 0.00
3:53 pm 15:53 Sunny 62 16.7 21 -6.1 21 21 VRB 6 9 30.04 1017 10 16 0.00 0.00
4:53 pm 16:53 Sunny 58 14.4 20 -6.7 23 23 NNW 10 17 30.05 1018 10 16 0.00 0.00
5:53 pm 17:53 Sunny 55 12.8 20 -6.7 25 25 NNW 7 11 30.09 1019 10 16 0.00 0.00
6:53 pm 18:53 Clear 53 11.7 18 -7.8 25 25 NNW 7 11 30.11 1020 10 16 0.00 0.00
7:53 pm 19:53 Mostly Cloudy 53 11.7 16 -8.9 23 23 N 6 9 30.10 1019 10 16 0.00 0.00
8:53 pm 20:53 Mostly Cloudy 52 11.1 18 -7.8 26 26 NNW 6 9 30.10 1019 10 16 0.00 0.00
9:53 pm 21:53 Cloudy 51 10.6 19 -7.2 28 28 N 3 6 30.10 1019 10 16 0.00 0.00
10:53 pm 22:53 Cloudy 50 10 20 -6.7 30 30 VRB 5 7 30.09 1019 10 16 0.00 0.00
11:53 pm 23:53 Cloudy 50 10 20 -6.7 30 30 N 6 9 30.10 1019 10 16 0.00 0.00

Powered by AerisWeather